Time,TemperatureF,DewpointF,PressureIn,WindDirection,WindDirectionDegrees,WindSpeedMPH,WindSpeedGustMPH,Humidity,HourlyPrecipIn,Conditions,Clouds,dailyrainin,SoftwareType,DateUTC
2013-06-09 00:14:00,70.6,63.0,29.86,SSE,154,0.0,1.0,77,0.00,,,0.00,weatherlink.com 1.10,2013-06-09 05:14:00,
2013-06-09 00:29:00,70.3,63.0,29.86,SE,142,0.0,2.0,77,0.00,,,0.00,weatherlink.com 1.10,2013-06-09 05:29:00,
2013-06-09 00:44:00,70.4,63.0,29.86,SE,138,1.0,3.0,78,0.00,,,0.00,weatherlink.com 1.10,2013-06-09 05:44:00,
2013-06-09 00:59:00,70.4,63.0,29.86,SE,128,0.0,3.0,78,0.00,,,0.00,weatherlink.com 1.10,2013-06-09 05:59:00,
2013-06-09 01:14:00,70.1,63.0,29.86,South,183,1.0,3.0,78,0.00,,,0.00,weatherlink.com 1.10,2013-06-09 06:14:00,
2013-06-09 01:29:00,69.9,64.0,29.87,ESE,120,0.0,1.0,80,0.00,,,0.00,weatherlink.com 1.10,2013-06-09 06:29:00,
2013-06-09 01:44:00,69.5,63.0,29.87,WNW,297,1.0,2.0,81,0.00,,,0.00,weatherlink.com 1.10,2013-06-09 06:44:00,
2013-06-09 01:59:00,70.9,64.0,29.91,NW,318,5.0,19.0,79,0.00,,,0.00,weatherlink.com 1.10,2013-06-09 06:59:00,
2013-06-09 02:14:00,68.8,65.0,29.93,NNE,18,7.0,16.0,86,0.00,,,0.00,weatherlink.com 1.10,2013-06-09 07:14:00,
2013-06-09 02:29:00,65.4,63.0,29.93,NE,39,3.0,9.0,92,0.07,,,0.07,weatherlink.com 1.10,2013-06-09 07:29:00,
2013-06-09 02:59:00,64.4,63.0,29.91,North,4,2.0,2.0,94,0.12,,,0.12,weatherlink.com 1.10,2013-06-09 07:59:00,
2013-06-09 03:14:00,64.2,63.0,29.90,NE,37,0.0,2.0,95,0.17,,,0.17,weatherlink.com 1.10,2013-06-09 08:14:00,
2013-06-09 03:29:00,64.1,63.0,29.89,SSE,159,1.0,4.0,95,0.13,,,0.20,weatherlink.com 1.10,2013-06-09 08:29:00,
2013-06-09 03:44:00,64.2,63.0,29.89,NNW,344,0.0,2.0,95,0.13,,,0.21,weatherlink.com 1.10,2013-06-09 08:44:00,
2013-06-09 03:59:00,64.3,63.0,29.85,SE,129,1.0,4.0,95,0.10,,,0.22,weatherlink.com 1.10,2013-06-09 08:59:00,
2013-06-09 04:14:00,64.8,64.0,29.82,East,91,0.0,5.0,96,0.05,,,0.22,weatherlink.com 1.10,2013-06-09 09:14:00,
2013-06-09 04:29:00,65.6,65.0,29.82,SE,143,1.0,11.0,96,0.02,,,0.22,weatherlink.com 1.10,2013-06-09 09:29:00,
2013-06-09 04:44:00,65.9,65.0,29.82,ESE,103,4.0,12.0,96,0.01,,,0.22,weatherlink.com 1.10,2013-06-09 09:44:00,
2013-06-09 05:00:00,66.0,65.0,29.81,ESE,117,3.0,9.0,95,0.00,,,0.22,weatherlink.com 1.10,2013-06-09 10:00:00,
2013-06-09 05:15:00,66.0,65.0,29.80,SSE,155,0.0,5.0,95,0.00,,,0.22,weatherlink.com 1.10,2013-06-09 10:15:00,
2013-06-09 05:30:00,66.0,65.0,29.80,SE,131,3.0,5.0,95,0.00,,,0.22,weatherlink.com 1.10,2013-06-09 10:30:00,
2013-06-09 05:45:00,65.9,65.0,29.81,SSW,193,3.0,4.0,95,0.00,,,0.22,weatherlink.com 1.10,2013-06-09 10:45:00,
2013-06-09 06:00:00,65.8,64.0,29.82,SE,133,2.0,6.0,95,0.00,,,0.22,weatherlink.com 1.10,2013-06-09 11:00:00,
2013-06-09 06:15:00,65.6,64.0,29.81,ENE,70,0.0,3.0,95,0.00,,,0.22,weatherlink.com 1.10,2013-06-09 11:15:00,
2013-06-09 06:30:00,65.4,64.0,29.82,North,352,0.0,2.0,95,0.00,,,0.22,weatherlink.com 1.10,2013-06-09 11:30:00,
2013-06-09 06:45:00,64.7,63.0,29.82,North,352,0.0,2.0,95,0.00,,,0.22,weatherlink.com 1.10,2013-06-09 11:45:00,
2013-06-09 07:00:00,-999.0,-99.9,29.84,North,-999,-999.0,-999.0,-999,0.00,,,0.22,weatherlink.com 1.10,2013-06-09 12:00:00,
2013-06-09 07:15:00,-999.0,-99.9,29.84,North,-999,-999.0,-999.0,-999,0.00,,,0.22,weatherlink.com 1.10,2013-06-09 12:15:00,
2013-06-09 07:30:00,65.0,64.0,29.85,NNW,329,0.0,0.0,96,0.00,,,0.22,weatherlink.com 1.10,2013-06-09 12:30:00,
2013-06-09 07:45:00,65.6,65.0,29.86,NW,322,0.0,1.0,96,0.01,,,0.23,weatherlink.com 1.10,2013-06-09 12:45:00,
2013-06-09 08:00:00,67.3,66.0,29.87,NNW,334,1.0,7.0,96,0.01,,,0.23,weatherlink.com 1.10,2013-06-09 13:00:00,
2013-06-09 08:15:00,68.6,67.0,29.88,NNE,23,2.0,4.0,95,0.01,,,0.23,weatherlink.com 1.10,2013-06-09 13:15:00,
2013-06-09 08:30:00,69.7,67.0,29.89,NW,321,0.0,6.0,92,0.01,,,0.23,weatherlink.com 1.10,2013-06-09 13:30:00,
2013-06-09 08:45:00,69.9,67.0,29.89,NNW,342,3.0,5.0,90,0.00,,,0.23,weatherlink.com 1.10,2013-06-09 13:45:00,
2013-06-09 09:00:00,70.0,67.0,29.90,North,8,2.0,4.0,90,0.00,,,0.23,weatherlink.com 1.10,2013-06-09 14:00:00,
2013-06-09 09:15:00,70.2,68.0,29.91,NNW,332,3.0,4.0,91,0.00,,,0.23,weatherlink.com 1.10,2013-06-09 14:15:00,
2013-06-09 09:30:00,71.6,67.0,29.91,NW,318,5.0,7.0,85,0.00,,,0.23,weatherlink.com 1.10,2013-06-09 14:30:00,
2013-06-09 09:45:00,72.2,68.0,29.92,North,354,2.0,6.0,85,0.00,,,0.23,weatherlink.com 1.10,2013-06-09 14:45:00,
2013-06-09 10:00:00,73.1,68.0,29.93,NW,307,3.0,5.0,83,0.00,,,0.23,weatherlink.com 1.10,2013-06-09 15:00:00,
2013-06-09 10:15:00,73.5,68.0,29.93,North,1,0.0,6.0,82,0.00,,,0.23,weatherlink.com 1.10,2013-06-09 15:15:00,
2013-06-09 10:30:00,74.3,67.0,29.92,NNE,25,6.0,6.0,78,0.00,,,0.23,weatherlink.com 1.10,2013-06-09 15:30:00,
2013-06-09 10:45:00,74.7,68.0,29.92,North,8,4.0,6.0,79,0.00,,,0.23,weatherlink.com 1.10,2013-06-09 15:45:00,
2013-06-09 11:00:00,75.5,68.0,29.92,NNE,32,7.0,8.0,77,0.00,,,0.23,weatherlink.com 1.10,2013-06-09 16:00:00,
2013-06-09 11:15:00,76.2,69.0,29.93,NNE,15,0.0,6.0,78,0.00,,,0.23,weatherlink.com 1.10,2013-06-09 16:15:00,
2013-06-09 11:30:00,77.0,68.0,29.92,North,360,3.0,5.0,74,0.00,,,0.23,weatherlink.com 1.10,2013-06-09 16:30:00,
2013-06-09 11:45:00,77.5,68.0,29.92,North,4,2.0,6.0,72,0.00,,,0.23,weatherlink.com 1.10,2013-06-09 16:45:00,
2013-06-09 12:00:00,78.0,68.0,29.93,North,353,3.0,8.0,72,0.00,,,0.23,weatherlink.com 1.10,2013-06-09 17:00:00,
2013-06-09 12:15:00,79.2,68.0,29.93,NW,318,2.0,8.0,69,0.00,,,0.23,weatherlink.com 1.10,2013-06-09 17:15:00,
2013-06-09 12:30:00,79.4,69.0,29.92,NE,41,5.0,8.0,70,0.00,,,0.23,weatherlink.com 1.10,2013-06-09 17:30:00,
2013-06-09 12:45:00,79.8,68.0,29.92,North,353,1.0,6.0,67,0.00,,,0.23,weatherlink.com 1.10,2013-06-09 17:45:00,
2013-06-09 13:00:00,80.5,69.0,29.91,NW,314,4.0,6.0,69,0.00,,,0.23,weatherlink.com 1.10,2013-06-09 18:00:00,
2013-06-09 13:15:00,81.3,69.0,29.91,NNW,338,5.0,7.0,67,0.00,,,0.23,weatherlink.com 1.10,2013-06-09 18:15:00,
2013-06-09 13:30:00,81.6,69.0,29.90,NNW,332,1.0,5.0,66,0.00,,,0.23,weatherlink.com 1.10,2013-06-09 18:30:00,
2013-06-09 13:45:00,81.8,69.0,29.90,NE,44,3.0,7.0,65,0.00,,,0.23,weatherlink.com 1.10,2013-06-09 18:45:00,
2013-06-09 14:00:00,82.3,69.0,29.89,NNE,26,4.0,8.0,64,0.00,,,0.23,weatherlink.com 1.10,2013-06-09 19:00:00,
2013-06-09 14:15:00,82.8,69.0,29.89,North,349,5.0,8.0,63,0.00,,,0.23,weatherlink.com 1.10,2013-06-09 19:15:00,
2013-06-09 14:30:00,83.3,70.0,29.88,NNE,26,4.0,8.0,64,0.00,,,0.23,weatherlink.com 1.10,2013-06-09 19:30:00,
2013-06-09 14:45:00,83.2,67.0,29.88,NNW,332,0.0,6.0,59,0.00,,,0.23,weatherlink.com 1.10,2013-06-09 19:45:00,
2013-06-09 15:00:00,84.0,69.0,29.88,WNW,285,1.0,6.0,60,0.00,,,0.23,weatherlink.com 1.10,2013-06-09 20:00:00,
2013-06-09 15:15:00,84.5,68.0,29.88,WNW,284,1.0,6.0,57,0.00,,,0.23,weatherlink.com 1.10,2013-06-09 20:15:00,
2013-06-09 15:30:00,84.6,68.0,29.88,NNW,334,3.0,6.0,58,0.00,,,0.23,weatherlink.com 1.10,2013-06-09 20:30:00,
2013-06-09 15:45:00,84.5,69.0,29.88,NNW,342,2.0,4.0,60,0.00,,,0.23,weatherlink.com 1.10,2013-06-09 20:45:00,
2013-06-09 16:00:00,85.0,69.0,29.88,NNE,22,1.0,5.0,58,0.00,,,0.23,weatherlink.com 1.10,2013-06-09 21:00:00,
2013-06-09 16:15:00,85.4,67.0,29.88,North,351,0.0,6.0,55,0.00,,,0.23,weatherlink.com 1.10,2013-06-09 21:15:00,
2013-06-09 16:30:00,86.3,67.0,29.87,SSE,152,0.0,3.0,52,0.00,,,0.23,weatherlink.com 1.10,2013-06-09 21:30:00,
2013-06-09 16:45:00,87.1,69.0,29.87,NW,311,1.0,3.0,55,0.00,,,0.23,weatherlink.com 1.10,2013-06-09 21:45:00,
2013-06-09 17:00:00,86.5,66.0,29.86,NNW,334,1.0,5.0,50,0.00,,,0.23,weatherlink.com 1.10,2013-06-09 22:00:00,
2013-06-09 17:15:00,87.2,67.0,29.86,ENE,70,2.0,4.0,51,0.00,,,0.23,weatherlink.com 1.10,2013-06-09 22:15:00,
2013-06-09 17:30:00,86.3,66.0,29.86,North,5,0.0,4.0,50,0.00,,,0.23,weatherlink.com 1.10,2013-06-09 22:30:00,
2013-06-09 17:45:00,87.3,69.0,29.86,NNE,30,0.0,2.0,54,0.00,,,0.23,weatherlink.com 1.10,2013-06-09 22:45:00,
2013-06-09 18:00:00,88.3,67.0,29.86,East,83,0.0,2.0,50,0.00,,,0.23,weatherlink.com 1.10,2013-06-09 23:00:00,
2013-06-09 18:15:00,88.7,68.0,29.85,WSW,248,0.0,2.0,51,0.00,,,0.23,weatherlink.com 1.10,2013-06-09 23:15:00,
2013-06-09 18:30:00,88.9,68.0,29.85,SW,231,0.0,1.0,50,0.00,,,0.23,weatherlink.com 1.10,2013-06-09 23:30:00,
2013-06-09 18:45:00,89.8,68.0,29.85,SSE,162,0.0,1.0,49,0.00,,,0.23,weatherlink.com 1.10,2013-06-09 23:45:00,
2013-06-09 19:00:00,89.2,70.0,29.85,SE,131,0.0,1.0,54,0.00,,,0.23,weatherlink.com 1.10,2013-06-10 00:00:00,
2013-06-09 19:15:00,88.5,70.0,29.86,SE,127,0.0,1.0,54,0.00,,,0.23,weatherlink.com 1.10,2013-06-10 00:15:00,
2013-06-09 19:30:00,88.8,73.0,29.86,SE,131,0.0,0.0,59,0.00,,,0.23,weatherlink.com 1.10,2013-06-10 00:30:00,
2013-06-09 19:45:00,86.8,74.0,29.86,SE,132,0.0,0.0,65,0.00,,,0.23,weatherlink.com 1.10,2013-06-10 00:45:00,
2013-06-09 20:00:00,82.8,72.0,29.86,SE,132,0.0,0.0,69,0.00,,,0.23,weatherlink.com 1.10,2013-06-10 01:00:00,
2013-06-09 20:15:00,79.3,72.0,29.86,SW,221,0.0,1.0,77,0.00,,,0.23,weatherlink.com 1.10,2013-06-10 01:15:00,
2013-06-09 20:30:00,77.3,70.0,29.86,SW,217,0.0,0.0,79,0.00,,,0.23,weatherlink.com 1.10,2013-06-10 01:30:00,
2013-06-09 20:45:00,75.1,69.0,29.86,SW,218,0.0,1.0,80,0.00,,,0.23,weatherlink.com 1.10,2013-06-10 01:45:00,
2013-06-09 21:00:00,73.9,68.0,29.87,SW,216,0.0,0.0,81,0.00,,,0.23,weatherlink.com 1.10,2013-06-10 02:00:00,
2013-06-09 21:15:00,73.0,67.0,29.87,SW,217,0.0,1.0,81,0.00,,,0.23,weatherlink.com 1.10,2013-06-10 02:15:00,
2013-06-09 21:30:00,72.6,66.0,29.88,SW,217,0.0,1.0,79,0.00,,,0.23,weatherlink.com 1.10,2013-06-10 02:30:00,
2013-06-09 21:45:00,72.2,66.0,29.88,SW,217,0.0,0.0,81,0.00,,,0.23,weatherlink.com 1.10,2013-06-10 02:45:00,
2013-06-09 22:00:00,71.1,66.0,29.89,SW,217,0.0,0.0,84,0.00,,,0.23,weatherlink.com 1.10,2013-06-10 03:00:00,
2013-06-09 22:15:00,70.4,66.0,29.89,SW,214,0.0,1.0,85,0.00,,,0.23,weatherlink.com 1.10,2013-06-10 03:15:00,
2013-06-09 22:30:00,69.4,66.0,29.90,SSW,204,0.0,1.0,88,0.00,,,0.23,weatherlink.com 1.10,2013-06-10 03:30:00,
2013-06-09 22:45:00,69.7,65.0,29.90,SW,224,0.0,0.0,86,0.00,,,0.23,weatherlink.com 1.10,2013-06-10 03:45:00,
2013-06-09 23:00:00,70.5,66.0,29.91,SSE,155,0.0,1.0,84,0.00,,,0.23,weatherlink.com 1.10,2013-06-10 04:00:00,
2013-06-09 23:15:00,71.8,66.0,29.90,SSE,167,2.0,4.0,81,0.00,,,0.23,weatherlink.com 1.10,2013-06-10 04:15:00,
2013-06-09 23:30:00,73.1,66.0,29.91,SSE,167,0.0,3.0,78,0.00,,,0.23,weatherlink.com 1.10,2013-06-10 04:30:00,
2013-06-09 23:45:00,73.7,66.0,29.91,SW,216,0.0,4.0,78,0.00,,,0.23,weatherlink.com 1.10,2013-06-10 04:45:00,